[[{"header":{"parameterUnit":"m.s-1","parameterCategory":1,"la1":30.2991,"la2":30.254,"lo1":-89.0895,"lo2":-89.0444,"dy":0.0017,"dx":0.0017,"nx":28,"ny":28,"refTime":"2026-01-04T09:00:00:Z","depth":0,"parameterNumber":2,"parameterNumberName":"U-component_of_WINDS"},"data":[0,0,0,0,0,0,0,0,0,0,0,0,0,0,0,0,0,0,0,0,0,0,0,0,0,0,0,0,0,0,0,0,0,0,0,0,0,0,0,0,0,0,0,0,0,0,0,0,0,0,0,0,0,0,0,0,0,0,-1.3296,-1.3296,0,-1.3294,-1.3294,-1.3294,-1.3235,-1.3233,-1.3232,-1.323,-1.323,-1.3232,-1.3233,0,0,0,0,0,0,0,0,0,0,0,0,0,-1.3249,-1.325,-1.3296,-1.3296,-1.3296,-1.3294,-1.3294,-1.3294,-1.3235,-1.3233,-1.3231,-1.323,-1.323,-1.3231,-1.3233,0,0,0,0,0,0,0,0,0,0,0,0,0,-1.326,-1.325,-1.3296,-1.3266,-1.3263,-1.3294,-1.3294,-1.3294,-1.3236,-1.3233,-1.3231,-1.3229,-1.3229,-1.3231,-1.3233,-1.3293,0,0,-1.324,-1.3241,0,0,0,0,0,0,0,0,-1.326,-1.3262,-1.327,-1.3268,-1.3265,-1.3262,-1.3278,-1.3294,-1.3236,-1.3246,-1.323,-1.3228,-1.3243,-1.3244,-1.3249,-1.3293,-1.3293,-1.324,-1.3242,-1.3243,-1.3243,0,0,0,0,0,0,0,-1.3259,-1.3262,-1.3295,-1.3271,-1.3267,-1.3253,-1.3252,-1.3281,-1.3258,-1.3245,-1.3241,-1.3241,-1.3241,-1.3247,-1.3248,-1.3293,-1.324,-1.3242,-1.3243,-1.3244,-1.3388,-1.3391,0,0,0,0,0,0,-1.3262,-1.3262,-1.3295,-1.3295,-1.3257,-1.3256,-1.3255,-1.3266,-1.3257,-1.3254,-1.3243,-1.3239,-1.3244,-1.3246,-1.3248,-1.3318,-1.3243,-1.3245,-1.3246,-1.3386,-1.3389,-1.3391,0,0,0,0,0,0,-1.3261,-1.3266,-1.3295,-1.3277,-1.328,-1.3259,-1.3272,-1.3267,-1.3272,-1.3256,-1.3252,-1.3253,-1.3242,-1.3245,-1.3283,-1.3317,-1.3246,-1.3248,-1.3383,-1.3387,-1.339,-1.3459,0,0,0,0,0,0,-1.326,-1.3266,-1.3288,-1.3278,-1.3281,-1.333,-1.3274,-1.3269,-1.3276,-1.327,-1.3264,-1.3261,-1.3241,-1.328,-1.3285,-1.3319,-1.3249,-1.3379,-1.3384,-1.3389,-1.3454,-1.3465,-1.3474,0,0,0,0,0,-1.3259,-1.3308,-1.329,-1.3294,-1.3309,-1.3332,-1.3334,-1.3309,-1.3279,-1.3302,-1.3291,-1.3261,-1.3313,-1.3284,-1.3289,-1.3325,-1.3377,-1.3383,-1.3389,-1.3449,-1.3463,-1.3474,0,0,0,0,0,0,-1.3323,-1.3306,-1.3285,-1.3333,-1.3334,-1.3322,-1.3349,-1.3324,-1.3335,-1.3329,-1.3298,-1.3297,-1.334,-1.3336,-1.3304,-1.3383,-1.334,-1.3347,-1.3384,-1.3397,-1.3407,-1.3407,-1.3251,0,0,0,0,0,-1.3342,-1.3362,-1.3346,-1.339,-1.3391,-1.3371,-1.338,-1.3361,-1.3361,-1.3362,-1.3354,-1.3356,-1.3373,-1.3384,-1.3399,-1.3453,-1.3451,-1.348,-1.349,-1.3499,-1.3505,-1.3534,-1.3547,-1.341,-1.341,-1.341,0,0,-1.3383,-1.3376,-1.3391,-1.3402,-1.3401,-1.3423,-1.3371,-1.3397,-1.3413,-1.3366,-1.3401,-1.3395,-1.3396,-1.3442,-1.3462,-1.344,-1.3543,-1.3506,-1.3513,-1.3515,-1.3541,-1.3554,-1.3566,-1.3414,-1.3413,-1.3413,0,0,-1.3468,-1.3465,-1.35,-1.35,-1.3499,-1.3485,-1.3494,-1.3486,-1.348,-1.3515,-1.348,-1.3499,-1.3528,-1.353,-1.3535,-1.3621,-1.3595,-1.3627,-1.3681,-1.371,-1.3721,-1.373,-1.3762,-1.3774,-1.3633,-1.3634,-1.3634,0,-1.3519,-1.355,-1.3522,-1.355,-1.3557,-1.3514,-1.3551,-1.3552,-1.3556,-1.3562,-1.3537,-1.3573,-1.3571,-1.3617,-1.3638,-1.3643,-1.3653,-1.3628,-1.3721,-1.373,-1.3739,-1.3769,-1.3781,-1.3638,-1.3637,-1.3637,-1.3636,0,-1.3613,-1.3635,-1.3664,-1.3669,-1.3679,-1.3711,-1.3688,-1.3702,-1.3682,-1.3671,-1.3707,-1.3702,-1.3715,-1.3725,-1.3706,-1.3769,-1.3755,-1.3726,-1.3683,-1.3756,-1.3784,-1.3795,-1.3643,-1.3642,-1.3641,-1.364,0,0,-1.3738,-1.3727,-1.3739,-1.3741,-1.3737,-1.3753,-1.3784,-1.3796,-1.3809,-1.3813,-1.3838,-1.3864,-1.3837,-1.3843,-1.3824,-1.3849,-1.3919,-1.3817,-1.3816,-1.3837,-1.3989,-1.4012,-1.4025,-1.3901,-1.3903,-1.3904,-1.3989,0,-1.3822,-1.3872,-1.3849,-1.3903,-1.3923,-1.3884,-1.391,-1.3911,-1.3901,-1.3918,-1.3907,-1.3926,-1.3889,-1.3892,-1.3915,-1.3906,-1.3949,-1.3899,-1.3925,-1.3926,-1.3927,-1.4039,-1.4063,-1.4144,-1.4,-1.4002,-1.4003,0,-1.3925,-1.3934,-1.399,-1.3982,-1.399,-1.4015,-1.4024,-1.404,-1.4041,-1.4032,-1.4038,-1.4014,-1.4044,-1.4,-1.4041,-1.4008,-1.4017,-1.4014,-1.4016,-1.4018,-1.397,-1.4046,-1.4169,-1.4181,-1.402,-1.4018,-1.4017,0,-1.4012,-1.4038,-1.4075,-1.4077,-1.407,-1.4088,-1.4085,-1.4083,-1.4092,-1.4101,-1.4107,-1.4119,-1.4126,-1.4136,-1.4116,-1.4086,-1.4161,-1.4115,-1.4155,-1.4156,-1.4173,-1.4173,-1.43,-1.4178,-1.4178,-1.4178,-1.4177,0,-1.4108,-1.4144,-1.4114,-1.4137,-1.4176,-1.4148,-1.4188,-1.4182,-1.418,-1.4202,-1.4168,-1.4189,-1.416,-1.4179,-1.4163,-1.42,-1.4203,-1.4198,-1.4193,-1.4201,-1.4202,-1.4207,-1.4202,-1.4181,-1.418,-1.4179,-1.4179,0,-1.4212,-1.4193,-1.4231,-1.422,-1.4219,-1.4248,-1.424,-1.4261,-1.4248,-1.4276,-1.4281,-1.4262,-1.4282,-1.4263,-1.4281,-1.4271,-1.4321,-1.4308,-1.4321,-1.4318,-1.4359,-1.4356,-1.4496,-1.4513,-1.4379,-1.438,-1.4381,0,-1.4275,-1.4302,-1.4294,-1.4306,-1.4305,-1.4325,-1.4334,-1.4308,-1.4319,-1.4322,-1.4343,-1.436,-1.4372,-1.4406,-1.4394,-1.4409,-1.4396,-1.4444,-1.4398,-1.4406,-1.4398,-1.4397,-1.44,-1.4454,-1.4455,-1.4457,-1.4458,0,-1.4388,-1.4378,-1.4392,-1.4403,-1.4415,-1.4423,-1.4428,-1.444,-1.4413,-1.4427,-1.4447,-1.4457,-1.4476,-1.4493,-1.4504,-1.4502,-1.4476,-1.4472,-1.4482,-1.4491,-1.4498,-1.4496,-1.4347,-1.4469,-1.4468,-1.4467,-1.4467,-1.4466,-1.4474,-1.4496,-1.4495,-1.4512,-1.4513,-1.4519,-1.4538,-1.4529,-1.4545,-1.4558,-1.4542,-1.4566,-1.4566,-1.4578,-1.458,-1.4599,-1.4579,-1.4594,-1.4597,-1.4602,-1.4608,-1.4494,-1.4601,-1.46,-1.46,-1.46,-1.46,0,-1.4587,-1.4584,-1.46,-1.4608,-1.4622,-1.4595,-1.46,-1.4613,-1.4635,-1.4637,-1.465,-1.4673,-1.469,-1.468,-1.4695,-1.4713,-1.4701,-1.4718,-1.4716,-1.4717,-1.4625,-1.4615,-1.4727,-1.4727,-1.4727,-1.4727,-1.4727,-1.4727,-1.4647,-1.4683,-1.4673,-1.471,-1.4706,-1.473,-1.4735,-1.474,-1.4742,-1.4769,-1.4783,-1.4776,-1.4774,-1.4788,-1.4803,-1.48,-1.4807,-1.4828,-1.4821,-1.4735,-1.4723,-1.4711,-1.4702,-1.483,-1.483,-1.4911,-1.4912,-1.4912]},{"header":{"parameterUnit":"m.s-1","parameterCategory":1,"la1":30.2991,"la2":30.254,"lo1":-89.0895,"lo2":-89.0444,"dy":0.0017,"dx":0.0017,"nx":28,"ny":28,"refTime":"2026-01-04T09:00:00:Z","depth":0,"parameterNumber":3,"parameterNumberName":"V-component_of_WINDS"},"data":[0,0,0,0,0,0,0,0,0,0,0,0,0,0,0,0,0,0,0,0,0,0,0,0,0,0,0,0,0,0,0,0,0,0,0,0,0,0,0,0,0,0,0,0,0,0,0,0,0,0,0,0,0,0,0,0,0,0,-1.7115,-1.7116,0,-1.7164,-1.7164,-1.7165,-1.7139,-1.7138,-1.7137,-1.7136,-1.7183,-1.7185,-1.7188,0,0,0,0,0,0,0,0,0,0,0,0,0,-1.6999,-1.7001,-1.7115,-1.7116,-1.7117,-1.7164,-1.7164,-1.7165,-1.714,-1.7138,-1.7137,-1.7135,-1.7182,-1.7185,-1.7188,0,0,0,0,0,0,0,0,0,0,0,0,0,-1.7048,-1.7002,-1.7115,-1.711,-1.711,-1.7163,-1.7164,-1.7165,-1.714,-1.7138,-1.7136,-1.7134,-1.7181,-1.7185,-1.7188,-1.7249,0,0,-1.7199,-1.7201,0,0,0,0,0,0,0,0,-1.7046,-1.7053,-1.711,-1.711,-1.711,-1.7144,-1.714,-1.7193,-1.714,-1.7128,-1.7136,-1.7133,-1.7171,-1.7176,-1.7189,-1.7252,-1.7254,-1.72,-1.7202,-1.7204,-1.7205,0,0,0,0,0,0,0,-1.7042,-1.705,-1.7134,-1.7111,-1.7111,-1.7104,-1.7109,-1.715,-1.716,-1.7129,-1.7128,-1.7134,-1.7171,-1.7185,-1.719,-1.7254,-1.72,-1.7203,-1.7205,-1.7207,-1.7369,-1.7371,0,0,0,0,0,0,-1.7039,-1.7048,-1.7133,-1.7136,-1.7073,-1.7108,-1.7113,-1.7135,-1.7159,-1.7161,-1.7135,-1.7132,-1.718,-1.7185,-1.7191,-1.7264,-1.7204,-1.7207,-1.7209,-1.7367,-1.7369,-1.7372,0,0,0,0,0,0,-1.7037,-1.7047,-1.7131,-1.7091,-1.7101,-1.7112,-1.7136,-1.7137,-1.7151,-1.7164,-1.7165,-1.7149,-1.7179,-1.7186,-1.7235,-1.7265,-1.7209,-1.7212,-1.7364,-1.7368,-1.737,-1.7411,0,0,0,0,0,0,-1.7034,-1.7046,-1.7071,-1.7092,-1.7104,-1.7175,-1.7138,-1.7139,-1.7158,-1.7154,-1.7177,-1.7179,-1.7178,-1.723,-1.7239,-1.727,-1.7215,-1.7362,-1.7366,-1.7369,-1.7407,-1.7415,-1.7422,0,0,0,0,0,-1.703,-1.708,-1.7072,-1.7082,-1.7134,-1.7177,-1.7183,-1.7182,-1.716,-1.7184,-1.7192,-1.7178,-1.7261,-1.7235,-1.7245,-1.7277,-1.736,-1.7365,-1.7369,-1.7404,-1.7413,-1.7422,0,0,0,0,0,0,-1.7061,-1.7083,-1.7074,-1.7133,-1.7153,-1.7173,-1.7203,-1.7193,-1.7219,-1.7215,-1.7211,-1.7216,-1.7267,-1.7277,-1.7248,-1.7337,-1.7307,-1.7314,-1.7329,-1.7339,-1.7346,-1.7343,-1.7218,0,0,0,0,0,-1.7075,-1.7109,-1.7125,-1.7176,-1.7186,-1.7193,-1.7211,-1.7208,-1.7229,-1.7237,-1.7249,-1.7269,-1.7299,-1.732,-1.7348,-1.7408,-1.7412,-1.7435,-1.7442,-1.7448,-1.7455,-1.7486,-1.7496,-1.7387,-1.7387,-1.7387,0,0,-1.7104,-1.712,-1.7141,-1.7182,-1.7198,-1.7232,-1.72,-1.7238,-1.7263,-1.7243,-1.729,-1.7299,-1.7321,-1.7376,-1.74,-1.7385,-1.7486,-1.7454,-1.7459,-1.7462,-1.7492,-1.7502,-1.7512,-1.739,-1.739,-1.7389,0,0,-1.7174,-1.719,-1.7233,-1.7249,-1.7273,-1.7277,-1.7288,-1.7308,-1.7314,-1.7361,-1.7347,-1.7376,-1.7428,-1.7444,-1.7459,-1.7534,-1.7522,-1.7544,-1.7583,-1.7614,-1.7623,-1.763,-1.7657,-1.7667,-1.755,-1.755,-1.755,0,-1.7207,-1.7259,-1.7257,-1.7296,-1.7314,-1.7297,-1.7341,-1.7356,-1.7388,-1.74,-1.7383,-1.7448,-1.7462,-1.752,-1.7538,-1.7551,-1.7562,-1.7542,-1.7622,-1.7629,-1.7636,-1.7662,-1.7672,-1.7552,-1.7552,-1.7552,-1.7552,0,-1.7298,-1.7334,-1.7366,-1.7398,-1.7419,-1.746,-1.7463,-1.7485,-1.7479,-1.7485,-1.7533,-1.7548,-1.758,-1.7593,-1.7588,-1.765,-1.764,-1.7622,-1.7591,-1.765,-1.7673,-1.7683,-1.7556,-1.7555,-1.7554,-1.7554,0,0,-1.7391,-1.742,-1.7432,-1.7446,-1.747,-1.7498,-1.7537,-1.7568,-1.7587,-1.7609,-1.7641,-1.7686,-1.7669,-1.7686,-1.7683,-1.771,-1.7768,-1.7689,-1.769,-1.7703,-1.7836,-1.785,-1.7861,-1.776,-1.7761,-1.7763,-1.7834,0,-1.7463,-1.7533,-1.7531,-1.7596,-1.7629,-1.7613,-1.7647,-1.7665,-1.7671,-1.7699,-1.7704,-1.7736,-1.7712,-1.7723,-1.7749,-1.7756,-1.7795,-1.775,-1.7789,-1.7791,-1.7785,-1.7873,-1.7888,-1.7955,-1.7844,-1.7845,-1.7846,0,-1.7556,-1.7582,-1.765,-1.767,-1.7683,-1.7714,-1.7742,-1.7769,-1.7789,-1.7791,-1.7809,-1.7802,-1.784,-1.7808,-1.7861,-1.7831,-1.7846,-1.7852,-1.7854,-1.7858,-1.7823,-1.788,-1.7976,-1.7986,-1.7861,-1.786,-1.7859,0,-1.7617,-1.7669,-1.7716,-1.7728,-1.7752,-1.7774,-1.7784,-1.7802,-1.7821,-1.7845,-1.7857,-1.7885,-1.79,-1.7921,-1.792,-1.7897,-1.7974,-1.7942,-1.7976,-1.7976,-1.7994,-1.7993,-1.8094,-1.8003,-1.8003,-1.8003,-1.8003,0,-1.7698,-1.7741,-1.7744,-1.7773,-1.7819,-1.7816,-1.7862,-1.787,-1.7886,-1.7916,-1.7903,-1.7931,-1.7929,-1.7956,-1.7956,-1.8,-1.8006,-1.8009,-1.8008,-1.801,-1.801,-1.8021,-1.8016,-1.8005,-1.8005,-1.8004,-1.8004,0,-1.7774,-1.7778,-1.7829,-1.7847,-1.7852,-1.7886,-1.7901,-1.7928,-1.7932,-1.7969,-1.7978,-1.7984,-1.8016,-1.8017,-1.8054,-1.8053,-1.8107,-1.8101,-1.81,-1.8099,-1.8134,-1.8131,-1.8246,-1.8261,-1.816,-1.8161,-1.8162,0,-1.7826,-1.7859,-1.788,-1.7899,-1.7911,-1.7943,-1.7961,-1.7959,-1.7979,-1.8003,-1.8027,-1.8058,-1.8083,-1.8134,-1.8142,-1.8169,-1.8164,-1.8202,-1.8168,-1.8169,-1.8165,-1.8163,-1.8166,-1.8209,-1.821,-1.8211,-1.8212,0,-1.7918,-1.7918,-1.7946,-1.7975,-1.7998,-1.802,-1.804,-1.8057,-1.8056,-1.8079,-1.8112,-1.8131,-1.8169,-1.8199,-1.8226,-1.8235,-1.8224,-1.8223,-1.8232,-1.8235,-1.8234,-1.8235,-1.8119,-1.822,-1.822,-1.8219,-1.8218,-1.8218,-1.7983,-1.8011,-1.803,-1.8062,-1.8077,-1.8096,-1.8123,-1.813,-1.8158,-1.8188,-1.8185,-1.8221,-1.8239,-1.8273,-1.8285,-1.8313,-1.8299,-1.8313,-1.8317,-1.832,-1.8324,-1.8229,-1.8318,-1.8317,-1.8317,-1.8317,-1.8317,0,-1.8074,-1.8086,-1.8115,-1.8144,-1.8168,-1.8155,-1.8177,-1.8198,-1.8231,-1.8248,-1.8273,-1.831,-1.8339,-1.8349,-1.8377,-1.8397,-1.8392,-1.8404,-1.8403,-1.8405,-1.8334,-1.8324,-1.8408,-1.8408,-1.8408,-1.8408,-1.8408,-1.8408,-1.8124,-1.8171,-1.8173,-1.8226,-1.8236,-1.8273,-1.8286,-1.8304,-1.8318,-1.836,-1.8385,-1.839,-1.8404,-1.8433,-1.8459,-1.8461,-1.8472,-1.8486,-1.8486,-1.842,-1.841,-1.8402,-1.8392,-1.8489,-1.8489,-1.8555,-1.8555,-1.8556]}]]